Regional Weather Roundup
Issued by NWS Bismarck, ND

Home | Current Version | Previous Version | Text Only | Print | Product List | Glossary On
Versions: 1 2 3 4 5 6 7 8 9 10 11 12 13 14 15 16 17 18 19 20 21 22 23 24 25 26 27 28 29 30 31 32 33 34 35 36 37 38 39 40 41 42 43 44 45 46 47 48 49 50
000
ASUS43 KBIS 191410
RWRBIS

NWR BROADCAST TEXT
NATIONAL WEATHER SERVICE BISMARCK ND
900 AM CDT SAT AUG 19 2017

NOTE: "FAIR" INDICATES FEW OR NO CLOUDS BELOW 12,000 FEET WITH NO
SIGNIFICANT WEATHER AND/OR OBSTRUCTIONS TO VISIBILITY.


CITY           SKY/WX    TMP DP  RH WIND       PRES   REMARKS
WILLISTON      SUNNY     67  52  58 S7        29.74S
MINOT          SUNNY     71  55  56 SW7       29.74F
MINOT AFB      SUNNY     71  55  56 S12       29.72F
BISMARCK       SUNNY     65  60  84 SE9       29.82F
DICKINSON      MOSUNNY   64  53  67 S13       29.78F
GARRISON         N/A     65  58  78 SE8       29.78F
HETTINGER ARPT SUNNY     62  53  72 S6        29.85S
JAMESTOWN      SUNNY     65  59  81 S7        29.86S
CARRINGTON     FAIR      68  61  77 SW9       29.86S
HAZEN          FAIR      68  55  64 SW5       29.79F
LINTON         FAIR      63  55  77 S12G20    29.86F
MANDAN         FAIR      66  57  72 SE9       29.82F
RUGBY          FAIR      66  57  72 S9        29.77F
STANLEY        FAIR      63  59  88 SE9       29.78F
TIOGA          FAIR      66  61  82 S7        29.76F
WATFORD CITY   FAIR      68  52  56 S6        29.74F
$$

CITY           SKY/WX    TMP DP  RH WIND       PRES   REMARKS
GRAND FORKS    SUNNY     66  60  81 S8        29.83S
GRAND FORKS AF SUNNY     68  57  68 SW6       29.83F
DEVILS LAKE    SUNNY     69  59  70 SW14      29.82F
FARGO          SUNNY     65  60  84 S7        29.88S
CANDO          FAIR      66  66 100 S5        29.82F
CAVALIER       FAIR      68  59  73 CALM      29.79S
GRAFTON        FAIR      64  61  88 S5        29.83S
GWINNER        SUNNY     61  59  94 S8        29.90F
LANGDON        FAIR      63  63 100 S8        29.82F
ROLLA          FAIR      64  57  77 SW10      29.79F
WALHALLA       FAIR      70  70 100 VRB7G13   29.78F
$$

CITY           SKY/WX    TMP DP  RH WIND       PRES   REMARKS
ABERDEEN       SUNNY     59  59 100 SE8       29.91F
MOBRIDGE       SUNNY     66  60  81 SE14      29.83F
BUFFALO          N/A     60  49  66 CALM      29.80S
RAPID CITY     SUNNY     66  51  58 CALM      29.88F
GLASGOW        SUNNY     67  38  34 NW17G23   29.80R
SIDNEY         MOSUNNY   60  52  74 S8        29.75F
WOLF POINT     MOSUNNY   62  47  57 SW8       29.76R
GLENDIVE       MOSUNNY   63  41  44 S8        29.80R
MILES CITY     MOSUNNY   60  37  42 SE3       29.85R
BAKER          MOSUNNY   68  42  38 W12       29.84R
$$

CITY           SKY/WX    TMP DP  RH WIND       PRES   REMARKS
BILLINGS       PTSUNNY   68  29  23 SW9       29.95R
GREAT FALLS    SUNNY     57  45  64 N14       30.03R
REGINA         MOSUNNY   68  46  45 W14       29.66R
ESTEVAN        MOSUNNY   72  52  49 S17G23    29.69F
$$




USA.gov is the U.S. government's official web portal to all federal, state and local government web resources and services.